Fergus Falls, MN

3:58 AM CDT on April 29, 2017 (GMT -0500)
Fergus Falls Municipal-Mickelson

Weather History for KFFM - January, 2014

Change the Weather History Date:

Sunday, January 26, 2014

  Actual Average Record
Temperature  
Mean Temperature -1 °F -  
Max Temperature 12 °F 15 °F 41 °F (2006)
Min Temperature -14 °F -5 °F -31 °F (1950)
Degree Days  
Heating Degree Days 66    
Moisture  
Dew Point -5 °F    
Average Humidity 76    
Maximum Humidity 85    
Minimum Humidity 64    
Precipitation  
Precipitation 0.04 in - - ()
Sea Level Pressure  
Sea Level Pressure 29.73 in    
Wind  
Wind Speed 15 mph (NNW)    
Max Wind Speed 39 mph    
Max Gust Speed 56 mph    
Visibility 5 miles    
Events Snow    
Averages and records for this station are not official NWS values.
T = Trace of Precipitation, MM = Missing Value Source: NWS Daily Summary

Daily Weather History Graph

Daily Weather History Graph

Search for Another Location

Airport or City:

Trip Planner

Search our weather history database for the weather conditions in past years. The results will help you decide how hot, cold, wet, or windy it might be!

Date:

Astronomy

Jan. 26, 2014 Rise Set
Actual Time 7:54 AM CST 5:20 PM CST
Civil Twilight 7:21 AM CST 5:53 PM CST
Nautical Twilight 6:45 AM CST 6:29 PM CST
Astronomical Twilight 6:09 AM CST 7:05 PM CST
Moon 3:34 AM CST (1/26) 1:09 PM CST (1/26)
Length of Visible Light 10h 31m
Length of Day
9h 26m
Waning Crescent, 23% of the Moon is Illuminated
Jan 26
Waning Crescent
Jan 30
New
Feb 6
First Quarter
Feb 14
Full
Feb 22
Last Quarter

Hourly Weather History & Observations

Time (CST) Temp. Windchill Dew Point Humidity Pressure Visibility Wind Dir Wind Speed Gust Speed Precip Events Conditions
12:13 AM 8.6 °F -1.3 °F 3.2 °F 79% 29.44 in 2.0 mi ESE 5.8 mph - N/A Snow Light Snow
12:33 AM 6.8 °F -4.8 °F 1.4 °F 79% 29.43 in 2.0 mi ESE 6.9 mph - N/A Snow Light Snow
12:54 AM 6.8 °F -0.1 °F 3.2 °F 85% 29.43 in 4.0 mi ESE 3.5 mph - N/A Snow Light Snow
1:13 AM 6.8 °F -4.8 °F 1.4 °F 79% 29.42 in 10.0 mi ESE 6.9 mph - 0.01 in   Overcast
1:33 AM 8.6 °F 2.0 °F 1.4 °F 73% 29.43 in 10.0 mi ESE 3.5 mph - 0.03 in   Overcast
1:54 AM 8.6 °F - 1.4 °F 73% 29.45 in 10.0 mi Calm Calm - 0.03 in   Overcast
2:13 AM 6.8 °F - 1.4 °F 79% 29.44 in 10.0 mi Calm Calm - 0.01 in Snow Light Snow
2:33 AM 6.8 °F - 1.4 °F 79% 29.45 in 10.0 mi Calm Calm - 0.01 in Snow Light Snow
2:54 AM 6.8 °F - 1.4 °F 79% 29.45 in 10.0 mi Calm Calm - 0.01 in Snow Light Snow
3:13 AM 6.8 °F - 1.4 °F 79% 29.45 in 10.0 mi Calm Calm - N/A   Overcast
3:33 AM 6.8 °F -2.0 °F 1.4 °F 79% 29.46 in 7.0 mi NNW 4.6 mph - N/A Snow Light Snow
3:54 AM 6.8 °F -0.1 °F 1.4 °F 79% 29.46 in 7.0 mi NNW 3.5 mph - N/A Snow Light Snow
4:13 AM 6.8 °F -3.5 °F 1.4 °F 79% 29.45 in 10.0 mi NNW 5.8 mph - N/A Snow Light Snow
4:33 AM 6.8 °F -5.9 °F 1.4 °F 79% 29.46 in 10.0 mi WNW 8.1 mph - N/A Snow Light Snow
4:54 AM 8.6 °F -7.0 °F 3.2 °F 79% 29.46 in 10.0 mi West 12.7 mph 16.1 mph N/A Snow Light Snow
5:13 AM 8.6 °F -10.0 °F 5.0 °F 85% 29.46 in 2.5 mi WNW 18.4 mph - N/A Snow Light Snow
5:33 AM 8.6 °F -10.0 °F 5.0 °F 85% 29.46 in 3.0 mi NW 18.4 mph 21.9 mph N/A Snow Light Snow
5:54 AM 8.6 °F -8.3 °F 5.0 °F 85% 29.47 in 10.0 mi NW 15.0 mph - N/A Snow Light Snow
6:13 AM 8.6 °F -7.0 °F 5.0 °F 85% 29.46 in 10.0 mi NW 12.7 mph - N/A   Overcast
6:33 AM 10.4 °F -4.1 °F 5.0 °F 79% 29.46 in 10.0 mi WNW 11.5 mph - N/A   Overcast
6:53 AM 10.4 °F -6.0 °F 6.8 °F 85% 29.45 in 10.0 mi NW 15.0 mph - N/A   Overcast
7:13 AM 10.4 °F -6.0 °F 6.8 °F 85% 29.45 in 10.0 mi NW 15.0 mph 19.6 mph N/A   Overcast
7:33 AM 12.2 °F -5.8 °F 6.8 °F 79% 29.46 in 10.0 mi NW 19.6 mph 24.2 mph N/A Snow Light Snow
7:53 AM 12.2 °F -4.3 °F 6.8 °F 79% 29.45 in 7.0 mi NNW 16.1 mph - N/A Snow Light Snow
8:13 AM 12.2 °F -4.8 °F 6.8 °F 79% 29.45 in 7.0 mi NNW 17.3 mph - N/A Snow Light Snow
8:33 AM 12.2 °F -7.1 °F 6.8 °F 79% 29.47 in 5.0 mi North 23.0 mph 27.6 mph N/A Snow Light Snow
8:53 AM 10.4 °F -9.9 °F 3.2 °F 73% 29.48 in 2.0 mi NNW 24.2 mph 33.4 mph N/A Snow Light Snow
9:13 AM 8.6 °F -10.0 °F 3.2 °F 79% 29.50 in 5.0 mi North 18.4 mph 28.8 mph N/A   Haze
9:33 AM 8.6 °F -11.9 °F 1.4 °F 73% 29.51 in 2.0 mi NNW 23.0 mph 28.8 mph N/A Snow Light Snow
9:53 AM 8.6 °F -11.0 °F 1.4 °F 73% 29.53 in 2.5 mi NNW 20.7 mph 27.6 mph N/A   Haze
10:13 AM 8.6 °F -10.5 °F 1.4 °F 73% 29.53 in 10.0 mi NNW 19.6 mph 24.2 mph N/A   Clear
10:33 AM 8.6 °F -11.4 °F 1.4 °F 73% 29.53 in 5.0 mi NNW 21.9 mph 27.6 mph N/A   Haze
10:53 AM 8.6 °F -12.3 °F 1.4 °F 73% 29.56 in 2.0 mi NNW 24.2 mph 34.5 mph N/A   Haze
11:13 AM 6.8 °F -16.2 °F -0.4 °F 72% 29.58 in 0.8 mi NNW 28.8 mph 36.8 mph N/A Snow Light Snow
11:33 AM 6.8 °F -15.1 °F -2.2 °F 67% 29.60 in 1.2 mi NNW 25.3 mph 40.3 mph N/A   Haze
11:53 AM 3.2 °F -20.7 °F -2.2 °F 78% 29.61 in 0.8 mi NNW 27.6 mph 35.7 mph N/A   Haze
12:13 PM 3.2 °F -21.8 °F -2.2 °F 78% 29.63 in 0.2 mi NNW 31.1 mph 40.3 mph N/A Snow Light Snow
12:33 PM 3.2 °F -21.1 °F -4.0 °F 72% 29.64 in 0.5 mi NNW 28.8 mph 39.1 mph N/A Snow Light Snow
12:53 PM 1.4 °F -21.9 °F -5.8 °F 72% 29.66 in 0.8 mi NNW 24.2 mph 41.4 mph N/A   Haze
1:13 PM -0.4 °F -25.6 °F -7.6 °F 72% 29.69 in 0.8 mi NNW 27.6 mph 38.0 mph N/A   Haze
1:33 PM -0.4 °F -24.3 °F -7.6 °F 72% 29.70 in 1.0 mi North 24.2 mph 33.4 mph N/A   Haze
1:53 PM -0.4 °F -27.8 °F -7.6 °F 72% 29.71 in 0.2 mi NNW 34.5 mph 43.7 mph N/A Snow Light Snow
2:13 PM -0.4 °F -29.1 °F -7.6 °F 72% 29.73 in 0.2 mi NNW 39.1 mph 49.5 mph N/A Snow Light Snow
2:33 PM -2.2 °F -30.3 °F -7.6 °F 78% 29.75 in 0.2 mi NNW 34.5 mph 46.0 mph N/A Snow Light Snow
2:53 PM -2.2 °F -30.9 °F -7.6 °F 78% 29.77 in 0.2 mi NNW 36.8 mph 48.3 mph N/A Snow Light Snow
3:13 PM -2.2 °F -29.9 °F -7.6 °F 78% 29.80 in 0.2 mi NNW 33.4 mph 50.6 mph N/A Snow Snow
3:33 PM -2.2 °F -29.9 °F -9.4 °F 71% 29.83 in 0.2 mi NNW 33.4 mph 42.6 mph N/A Snow Light Snow
3:53 PM -2.2 °F -30.9 °F -9.4 °F 71% 29.84 in 0.2 mi NNW 36.8 mph 52.9 mph N/A Snow Snow
4:13 PM -2.2 °F -28.0 °F -9.4 °F 71% 29.88 in 0.5 mi NNW 27.6 mph 43.7 mph N/A Snow Light Snow
4:33 PM -4.0 °F -31.6 °F -9.4 °F 78% 29.90 in 0.2 mi NNW 31.1 mph 46.0 mph N/A Snow Light Snow
4:53 PM -5.8 °F -34.9 °F -11.2 °F 77% 29.93 in 0.2 mi NNW 33.4 mph 49.5 mph N/A Snow Snow
5:13 PM -5.8 °F -34.9 °F -11.2 °F 77% 29.96 in - NNW 33.4 mph 46.0 mph N/A   Overcast
5:33 PM -5.8 °F -34.1 °F -11.2 °F 77% 29.98 in - NNW 31.1 mph 40.3 mph N/A   Overcast
5:53 PM -5.8 °F -34.1 °F -13.0 °F 71% 30.01 in - NNW 31.1 mph 43.7 mph N/A   Mostly Cloudy
6:13 PM -7.6 °F -38.1 °F -13.0 °F 77% 30.03 in - North 35.7 mph 56.4 mph N/A   Mostly Cloudy
6:33 PM -7.6 °F -33.4 °F -14.8 °F 71% 30.06 in - North 23.0 mph 39.1 mph N/A   Scattered Clouds
6:53 PM -7.6 °F -32.3 °F -14.8 °F 71% 30.08 in - NNW 20.7 mph 34.5 mph N/A   Mostly Cloudy
7:13 PM -7.6 °F -32.9 °F -14.8 °F 71% 30.10 in - NNW 21.9 mph 35.7 mph N/A   Overcast
7:33 PM -9.4 °F -33.5 °F -14.8 °F 77% 30.11 in - NNW 18.4 mph 31.1 mph N/A   Overcast
7:53 PM -9.4 °F -33.5 °F -14.8 °F 77% 30.13 in - NNW 18.4 mph 26.5 mph N/A   Overcast
8:13 PM -9.4 °F -34.7 °F -16.6 °F 71% 30.13 in - NNW 20.7 mph 28.8 mph N/A   Mostly Cloudy
8:34 PM -9.4 °F -36.8 °F -16.6 °F 71% 30.15 in - North 25.3 mph 29.9 mph N/A   Mostly Cloudy
8:53 PM -11.2 °F -38.7 °F -18.4 °F 70% 30.16 in - North 24.2 mph 34.5 mph N/A   Scattered Clouds
9:13 PM -11.2 °F -39.7 °F -18.4 °F 70% 30.18 in - NNW 26.5 mph 35.7 mph N/A   Clear
9:34 PM -11.2 °F -40.6 °F -20.2 °F 64% 30.18 in - North 28.8 mph 39.1 mph N/A   Clear
9:53 PM -13.0 °F -41.1 °F -20.2 °F 70% 30.19 in - NNW 24.2 mph 35.7 mph N/A   Clear
10:13 PM -13.0 °F -40.0 °F -20.2 °F 70% 30.20 in - NNW 21.9 mph 27.6 mph N/A   Scattered Clouds
10:34 PM -13.0 °F -42.1 °F -20.2 °F 70% 30.21 in - NNW 26.5 mph 31.1 mph N/A   Mostly Cloudy
10:53 PM -14.8 °F -44.0 °F -20.2 °F 77% 30.21 in - NNW 25.3 mph 32.2 mph N/A   Scattered Clouds
11:13 PM -14.8 °F -41.8 °F -20.2 °F 77% 30.23 in - NNW 20.7 mph 31.1 mph N/A   Scattered Clouds
11:34 PM -14.8 °F -41.2 °F -22.0 °F 70% 30.24 in - NNW 19.6 mph 29.9 mph N/A   Scattered Clouds
11:53 PM -14.8 °F -42.4 °F -20.2 °F 77% 30.24 in - NNW 21.9 mph 29.9 mph N/A   Scattered Clouds